Weather History for East Milton, MA

Change the Weather History Date:

Sunday, October 7, 2012

  Actual Average (KBOS) Record (KBOS)
Temperature  
Mean Temperature 50 °F 57 °F  
Max Temperature 57 °F 65 °F 90 °F (1963)
Min Temperature 44 °F 49 °F 30 °F (1883)
Degree Days  
Heating Degree Days 16 9  
Month to date heating degree days 54  
Since 1 July heating degree days 151  
Cooling Degree Days 0 0  
Month to date cooling degree days 6  
Year to date cooling degree days 746  
Moisture  
Dew Point 41 °F    
Average Humidity 75    
Maximum Humidity 93    
Minimum Humidity 57    
Precipitation  
Precipitation 0.12 in 0.13 in 2.30 in (1875)
Month to date precipitation 0.90  
Year to date precipitation 32.96  
Sea Level Pressure  
Sea Level Pressure 30.05 in    
Wind  
Wind Speed 7 mph (WSW)    
Max Wind Speed 12 mph    
Max Gust Speed -    
T = Trace of Precipitation, MM = Missing Value Source: NWS Daily Summary

Daily Weather History Graph

Daily Weather History Graph

Search for Another Location

Airport:

Trip Planner

Search our weather history database for the weather conditions in past years. The results will help you decide how hot, cold, wet, or windy it might be!

Date:

Astronomy

Oct. 07, 2012 Rise Set
Actual Time 6:48 AM EDT 6:14 PM EDT
Civil Twilight 6:20 AM EDT 6:42 PM EDT
Nautical Twilight 5:48 AM EDT 7:15 PM EDT
Astronomical Twilight 5:15 AM EDT 7:47 PM EDT
Moon 11:19 PM EDT (10/7) 1:28 PM EDT (10/7)
Length of Visible Light 12h 22m
Length of Day
11h 26m
Waning Gibbous, 56% of the Moon is Illuminated
Oct 7
Waning Gibbous
Oct 8
Last Quarter
Oct 15
New
Oct 21
First Quarter
Oct 29
Full

Hourly Weather History & Observations

Time (EDT) Temp. Windchill Dew Point Humidity Pressure Visibility Wind Dir Wind Speed Gust Speed Precip Events Conditions
12:54 AM 48.9 °F - 41.0 °F 74% 29.96 in - West 8.1 mph - N/A   Unknown
1:54 AM 48.0 °F - 41.0 °F 77% 29.98 in - West 10.4 mph - N/A   Unknown
2:54 AM 46.9 °F - 39.9 °F 77% 29.99 in - West 6.9 mph - N/A   Unknown
3:54 AM 46.0 °F 41.4 °F 37.9 °F 73% 30.00 in - West 9.2 mph - N/A   Unknown
4:54 AM 45.0 °F 41.2 °F 39.0 °F 80% 30.01 in - West 6.9 mph - N/A   Unknown
5:54 AM 45.0 °F 39.7 °F 37.9 °F 76% 30.03 in - West 10.4 mph - N/A   Unknown
6:54 AM 44.1 °F 38.6 °F 37.0 °F 76% 30.06 in - West 10.4 mph - N/A   Unknown
7:54 AM 45.0 °F 40.1 °F 37.9 °F 76% 30.08 in - WNW 9.2 mph - N/A   Unknown
8:54 AM 48.9 °F - 39.9 °F 71% 30.09 in - WNW 6.9 mph - N/A   Unknown
9:54 AM 52.0 °F - 41.0 °F 66% 30.09 in - West 3.5 mph - N/A   Unknown
10:54 AM 53.1 °F - 37.9 °F 57% 30.08 in - Calm Calm - N/A   Unknown
11:54 AM 55.0 °F - 39.9 °F 57% 30.09 in - Variable 3.5 mph - N/A   Unknown
12:54 PM 55.0 °F - 41.0 °F 59% 30.08 in - Variable 4.6 mph - N/A   Unknown
1:54 PM 54.0 °F - 39.0 °F 57% 30.07 in - WNW 5.8 mph - N/A   Unknown
2:54 PM 53.1 °F - 41.0 °F 64% 30.08 in - WSW 5.8 mph - N/A   Unknown
3:54 PM 51.1 °F - 43.0 °F 74% 30.07 in - SSW 3.5 mph - 0.02 in   Unknown
4:54 PM 50.0 °F - 46.0 °F 86% 30.05 in - South 5.8 mph - 0.02 in   Unknown
5:54 PM 48.9 °F - 44.1 °F 83% 30.06 in - South 8.1 mph - N/A   Unknown
6:54 PM 48.9 °F - 43.0 °F 80% 30.06 in - SSW 5.8 mph - N/A   Unknown
7:54 PM 48.9 °F - 43.0 °F 80% 30.04 in - SSW 3.5 mph - N/A   Unknown
8:54 PM 48.0 °F - 46.0 °F 93% 30.04 in - South 4.6 mph - N/A   Unknown
9:54 PM 48.0 °F - 46.0 °F 93% 30.07 in - SW 6.9 mph - N/A   Unknown
10:54 PM 46.9 °F - 44.1 °F 90% 30.09 in - West 10.4 mph - 0.03 in   Unknown
11:54 PM 46.0 °F 40.6 °F 44.1 °F 93% 30.09 in - WNW 11.5 mph - 0.05 in   Unknown